Location: Newark
(49.8969°N, 3.3422°E)
Time: 14:15:37
(UTC+00:00)

Tiros 1 - Pass Details

Date: 08 May 2021
Orbit: 630 x 664 km, 48.4° (Epoch: 11 June)

Event Time Altitude Azimuth Distance (km) Brightness Sun altitude
Exits shadow 02:18:01 21° 190° (S) 1,481 8.5 -14.8°
Maximum altitude 02:20:09 29° 148° (SSE) 1,190 8.3 -14.6°
Drops below altitude 10° 02:24:14 10° 89° (E) 2,054 10.3 -14.2°
Sets 02:26:47 0° 78° (ENE) 2,961 11.4 -13.9°
